Flag Weather past 2 weeks in Port Said, Egypt

Now
77 °F

Scattered clouds.


Feels Like: 79 °F
Forecast: 70 / 76 °F
Wind: 12 mph from North

Location: Port Said Airport

Current Time: Oct 30, 2014 at 3:04:03 PM

Latest Report: Oct 30, 2014 at 2:00 PM


Visibility: N/A

Pressure: 29.95 "Hg

Humidity: 61%

Dew point: 63 °F

Location of Port SaidLocation

Historic Weather in Port Said — Graph

°F

Port Said temperature yesterday

Maximum temperature yesterday: 77 °F (at 10:00 AM)
Minimum temperature yesterday: 72 °F (at 1:00 AM)
Average temperature yesterday: 74 °F

Past Weeks' High & Low Weather Summary

 TemperatureHumidityPressure
High86 °F (Oct 24, 1:00 PM)94% (Oct 18, 7:00 AM)31.45 "Hg (Oct 18, 7:00 AM)
Low68 °F (Oct 21, 7:00 AM)31% (Oct 25, 12:00 PM)29.77 "Hg (Oct 19, 2:00 PM)
Average75 °F68%29.99 "Hg
* Reported Oct 15 1:00 PM — Oct 30 1:00 PM, Port Said, Weather by CustomWeather, © 2014

Note: Actual official high and low records may vary slightly from our data, if they occured in-between our weather recording intervals... More about our weather records

Advertising

Port Said weather history for previous 24 hours

 ConditionsComfort  
Time TempWeatherWind HumidityBarometerVisibility
1:00 PM
Oct 30
79 °FScattered clouds.7 mph54%29.95 "HgN/A
12:00 PM79 °FSunny.9 mph54%29.98 "Hg10 mi
11:00 AM77 °FSunny.10 mph57%29.98 "Hg10 mi
10:00 AM77 °FSunny.12 mph54%30.01 "Hg10 mi
9:00 AM72 °FSunny.9 mph69%30.01 "Hg10 mi
8:00 AM70 °FPassing clouds.9 mph73%30.01 "HgN/A
7:00 AM68 °FPassing clouds.10 mph83%29.98 "HgN/A
6:00 AM70 °FPassing clouds.7 mph78%29.98 "HgN/A
5:00 AM72 °FPassing clouds.No wind73%29.98 "HgN/A
4:00 AM72 °FPassing clouds.No wind73%29.98 "HgN/A
3:00 AM72 °FPassing clouds.No wind73%30.01 "HgN/A
2:00 AM72 °FPassing clouds.6 mph73%30.01 "HgN/A
1:00 AM73 °FClear.5 mph69%30.04 "Hg10 mi
12:00 AM73 °FClear.5 mph69%30.04 "Hg10 mi
11:00 PM
Oct 29
73 °FClear.6 mph69%30.04 "Hg10 mi
10:00 PM73 °FClear.9 mph69%30.01 "Hg10 mi
9:00 PM73 °FClear.9 mph69%30.01 "Hg10 mi
8:00 PM73 °FClear.10 mph69%30.01 "Hg10 mi
7:00 PM73 °FClear.10 mph69%30.01 "Hg10 mi
6:00 PM73 °FClear.8 mph69%30.01 "Hg10 mi
5:00 PM75 °FSunny.10 mph65%29.98 "Hg10 mi
4:00 PM77 °FPassing clouds.7 mph57%29.98 "HgN/A
3:00 PM77 °FPassing clouds.6 mph61%29.98 "HgN/A
Weather by CustomWeather, © 2014

See weather overviewHow to use our weather pages